Location: Newark
(35.2672°N, 80.7344°W)
Time: 20:03:40
(UTC+00:00)

Vanguard 2 Rocket - Pass Details

Date: 27 January 2020
Orbit: 554 x 3326 km, 32.9° (Epoch: 16 February)

Event Time Altitude Azimuth Distance (km) Brightness Sun altitude
Rises 09:42:56 0° 244° (WSW) 2,715 - -33.3°
Reaches altitude 10° 09:45:05 10° 238° (WSW) 1,828 - -32.9°
Maximum altitude 09:48:52 46° 163° (SSE) 822 - -32.1°
Exits shadow 09:50:21 33° 115° (ESE) 1,091 7.7 -31.8°
Drops below altitude 10° 09:53:43 10° 90° (E) 2,340 9.9 -31.1°
Sets 09:56:48 0° 85° (E) 3,594 11.1 -30.5°
